Time,TemperatureF,DewpointF,PressureIn,WindDirection,WindDirectionDegrees,WindSpeedMPH,WindSpeedGustMPH,Humidity,HourlyPrecipIn,Conditions,Clouds,dailyrainin,SoftwareType,DateUTC
2013-10-22 00:13:00,30.0,28.0,29.67,WSW,250,0.0,3.0,91,0.00,,,0.00,,2013-10-22 05:13:00,
2013-10-22 00:22:00,30.0,28.0,29.67,WSW,256,0.0,3.0,91,0.00,,,0.00,,2013-10-22 05:22:00,
2013-10-22 00:43:00,30.0,28.0,29.67,North,360,1.0,7.0,91,0.00,,,0.00,,2013-10-22 05:43:00,
2013-10-22 00:52:00,30.0,28.0,29.67,WNW,294,0.0,3.0,92,0.00,,,0.00,,2013-10-22 05:52:00,
2013-10-22 01:12:00,31.0,29.0,29.68,NW,318,0.0,3.0,92,0.00,,,0.00,,2013-10-22 06:12:00,
2013-10-22 01:22:00,32.0,30.0,29.67,NNW,338,1.0,4.0,92,0.00,,,0.00,,2013-10-22 06:22:00,
2013-10-22 01:42:00,32.0,30.0,29.68,SSE,167,0.0,3.0,92,0.00,,,0.00,,2013-10-22 06:42:00,
2013-10-22 01:53:00,32.0,30.0,29.68,WNW,302,1.0,5.0,92,0.00,,,0.00,,2013-10-22 06:53:00,
2013-10-22 02:12:00,33.0,31.0,29.69,NNW,336,0.0,6.0,93,0.00,,,0.00,,2013-10-22 07:12:00,
2013-10-22 02:22:00,33.0,31.0,29.70,NW,304,0.0,3.0,93,0.00,,,0.00,,2013-10-22 07:22:00,
2013-10-22 02:42:00,33.0,31.0,29.71,West,278,0.0,7.0,93,0.00,,,0.00,,2013-10-22 07:42:00,
2013-10-22 02:52:00,33.0,31.0,29.72,NNW,340,0.0,4.0,93,0.00,,,0.00,,2013-10-22 07:52:00,
2013-10-22 03:12:00,33.0,31.0,29.72,WSW,239,1.0,8.0,93,0.00,,,0.00,,2013-10-22 08:12:00,
2013-10-22 03:22:00,33.0,31.0,29.73,WNW,302,0.0,5.0,93,0.00,,,0.00,,2013-10-22 08:22:00,
2013-10-22 03:42:00,33.0,31.0,29.74,NNW,330,1.0,5.0,93,0.00,,,0.00,,2013-10-22 08:42:00,
2013-10-22 03:52:00,33.0,31.0,29.74,NW,322,0.0,4.0,93,0.00,,,0.00,,2013-10-22 08:52:00,
2013-10-22 04:11:00,34.0,32.0,29.75,NNW,335,0.0,8.0,91,0.00,,,0.00,,2013-10-22 09:11:00,
2013-10-22 04:22:00,33.0,31.0,29.75,West,280,0.0,4.0,92,0.00,,,0.00,,2013-10-22 09:22:00,
2013-10-22 04:43:00,33.0,31.0,29.76,West,280,0.0,3.0,94,0.00,,,0.00,,2013-10-22 09:43:00,
2013-10-22 04:54:00,33.0,31.0,29.77,NW,308,0.0,7.0,94,0.00,,,0.00,,2013-10-22 09:54:00,
2013-10-22 05:13:00,33.0,31.0,29.78,North,351,0.0,6.0,92,0.00,,,0.00,,2013-10-22 10:13:00,
2013-10-22 05:23:00,33.0,31.0,29.78,NNE,12,1.0,5.0,92,0.00,,,0.00,,2013-10-22 10:23:00,
2013-10-22 05:43:00,33.0,31.0,29.78,North,355,0.0,4.0,93,0.00,,,0.00,,2013-10-22 10:43:00,
2013-10-22 05:53:00,32.0,30.0,29.79,WNW,295,0.0,4.0,94,0.00,,,0.00,,2013-10-22 10:53:00,
2013-10-22 06:12:00,32.0,30.0,29.80,West,267,0.0,4.0,94,0.00,,,0.00,,2013-10-22 11:12:00,
2013-10-22 06:22:00,32.0,30.0,29.80,NNW,334,0.0,4.0,93,0.00,,,0.00,,2013-10-22 11:22:00,
2013-10-22 06:42:00,32.0,30.0,29.80,NNE,18,0.0,6.0,93,0.00,,,0.00,,2013-10-22 11:42:00,
2013-10-22 06:52:00,32.0,30.0,29.80,West,281,0.0,7.0,94,0.00,,,0.00,,2013-10-22 11:52:00,
2013-10-22 07:11:00,32.0,30.0,29.81,NNW,338,0.0,3.0,94,0.00,,,0.00,,2013-10-22 12:11:00,
2013-10-22 07:22:00,31.0,30.0,29.82,SW,218,0.0,3.0,95,0.00,,,0.00,,2013-10-22 12:22:00,
2013-10-22 07:42:00,31.0,29.0,29.82,North,5,0.0,2.0,94,0.00,,,0.00,,2013-10-22 12:42:00,
2013-10-22 07:52:00,31.0,30.0,29.83,NW,305,0.0,3.0,95,0.00,,,0.00,,2013-10-22 12:52:00,
2013-10-22 08:12:00,32.0,31.0,29.84,West,264,0.0,1.0,95,0.00,,,0.00,,2013-10-22 13:12:00,
2013-10-22 08:21:00,32.0,31.0,29.84,WNW,297,0.0,4.0,95,0.00,,,0.00,,2013-10-22 13:21:00,
2013-10-22 08:42:00,32.0,30.0,29.84,NW,324,0.0,3.0,94,0.00,,,0.00,,2013-10-22 13:42:00,
2013-10-22 08:53:00,33.0,31.0,29.85,NW,321,0.0,5.0,93,0.00,,,0.00,,2013-10-22 13:53:00,
2013-10-22 09:11:00,34.0,31.0,29.85,North,356,1.0,4.0,90,0.00,,,0.00,,2013-10-22 14:11:00,
2013-10-22 09:21:00,34.0,32.0,29.86,WNW,294,0.0,5.0,91,0.00,,,0.00,,2013-10-22 14:21:00,
2013-10-22 09:42:00,35.0,32.0,29.87,NW,325,1.0,4.0,87,0.00,,,0.00,,2013-10-22 14:42:00,
2013-10-22 09:52:00,36.0,32.0,29.87,NNE,18,2.0,8.0,85,0.00,,,0.00,,2013-10-22 14:52:00,
2013-10-22 10:12:00,37.0,33.0,29.87,NW,311,1.0,5.0,84,0.00,,,0.00,,2013-10-22 15:12:00,
2013-10-22 10:22:00,37.0,33.0,29.87,WSW,240,0.0,7.0,85,0.00,,,0.00,,2013-10-22 15:22:00,
2013-10-22 10:43:00,38.0,33.0,29.88,NW,305,1.0,6.0,81,0.00,,,0.00,,2013-10-22 15:43:00,
2013-10-22 10:54:00,38.0,33.0,29.88,West,274,2.0,6.0,81,0.00,,,0.00,,2013-10-22 15:54:00,
2013-10-22 11:13:00,37.0,32.0,29.88,SE,145,1.0,6.0,81,0.00,,,0.00,,2013-10-22 16:13:00,
2013-10-22 11:23:00,38.0,32.0,29.88,NW,322,0.0,5.0,80,0.00,,,0.00,,2013-10-22 16:23:00,
2013-10-22 11:43:00,39.0,32.0,29.88,NW,316,1.0,3.0,77,0.00,,,0.00,,2013-10-22 16:43:00,
2013-10-22 11:53:00,40.0,34.0,29.88,SSW,212,0.0,5.0,78,0.00,,,0.00,,2013-10-22 16:53:00,
2013-10-22 12:12:00,39.0,32.0,29.88,West,278,0.0,3.0,76,0.00,,,0.00,,2013-10-22 17:12:00,
2013-10-22 12:22:00,40.0,32.0,29.88,WNW,302,0.0,5.0,72,0.00,,,0.00,,2013-10-22 17:22:00,
2013-10-22 12:43:00,40.0,31.0,29.88,SSW,212,2.0,5.0,70,0.00,,,0.00,,2013-10-22 17:43:00,
2013-10-22 12:52:00,41.0,33.0,29.88,NNE,30,0.0,4.0,74,0.01,,,0.01,,2013-10-22 17:52:00,
2013-10-22 13:12:00,41.0,32.0,29.88,West,271,0.0,4.0,71,0.01,,,0.01,,2013-10-22 18:12:00,
2013-10-22 13:22:00,41.0,32.0,29.88,WSW,253,1.0,4.0,71,0.01,,,0.01,,2013-10-22 18:22:00,
2013-10-22 13:42:00,40.0,31.0,29.88,North,358,0.0,3.0,71,0.01,,,0.01,,2013-10-22 18:42:00,
2013-10-22 13:52:00,41.0,33.0,29.87,WSW,243,1.0,3.0,72,0.00,,,0.01,,2013-10-22 18:52:00,
2013-10-22 14:12:00,41.0,31.0,29.88,SW,233,0.0,4.0,68,0.00,,,0.01,,2013-10-22 19:12:00,
2013-10-22 14:22:00,38.0,33.0,29.88,East,94,0.0,5.0,81,0.00,,,0.01,,2013-10-22 19:22:00,
2013-10-22 14:42:00,38.0,32.0,29.88,SW,218,0.0,5.0,80,0.00,,,0.01,,2013-10-22 19:42:00,
2013-10-22 14:53:00,38.0,33.0,29.88,WSW,248,0.0,2.0,81,0.00,,,0.01,,2013-10-22 19:53:00,
2013-10-22 15:11:00,39.0,32.0,29.88,West,271,1.0,4.0,76,0.00,,,0.01,,2013-10-22 20:11:00,
2013-10-22 15:22:00,39.0,32.0,29.88,NNW,331,0.0,3.0,76,0.00,,,0.01,,2013-10-22 20:22:00,
2013-10-22 15:43:00,39.0,31.0,29.89,NNW,338,0.0,6.0,73,0.00,,,0.01,,2013-10-22 20:43:00,
2013-10-22 15:52:00,39.0,31.0,29.89,NNW,338,0.0,6.0,73,0.00,,,0.01,,2013-10-22 20:52:00,
2013-10-22 16:12:00,36.0,32.0,29.91,West,270,0.0,3.0,84,0.00,,,0.01,,2013-10-22 21:12:00,
2013-10-22 16:23:00,35.0,33.0,29.90,SE,142,0.0,1.0,91,0.00,,,0.01,,2013-10-22 21:23:00,
2013-10-22 16:44:00,36.0,33.0,29.90,SW,226,0.0,1.0,89,0.00,,,0.01,,2013-10-22 21:44:00,
2013-10-22 16:54:00,36.0,32.0,29.91,NNE,12,0.0,2.0,85,0.00,,,0.01,,2013-10-22 21:54:00,
2013-10-22 17:14:00,36.0,32.0,29.91,NNW,327,0.0,4.0,84,0.00,,,0.01,,2013-10-22 22:14:00,
2013-10-22 17:24:00,35.0,31.0,29.92,NNW,332,0.0,4.0,84,0.00,,,0.01,,2013-10-22 22:24:00,
2013-10-22 17:44:00,35.0,31.0,29.92,WSW,243,0.0,1.0,86,0.00,,,0.01,,2013-10-22 22:44:00,
2013-10-22 17:54:00,34.0,30.0,29.92,NW,305,1.0,3.0,85,0.00,,,0.01,,2013-10-22 22:54:00,
2013-10-22 18:12:00,34.0,30.0,29.93,ENE,70,0.0,3.0,85,0.00,,,0.01,,2013-10-22 23:12:00,
2013-10-22 18:23:00,34.0,30.0,29.93,WSW,248,0.0,1.0,84,0.00,,,0.01,,2013-10-22 23:23:00,
2013-10-22 18:43:00,34.0,29.0,29.93,WNW,283,1.0,7.0,82,0.00,,,0.01,,2013-10-22 23:43:00,
2013-10-22 18:53:00,34.0,28.0,29.93,SW,217,0.0,2.0,80,0.00,,,0.01,,2013-10-22 23:53:00,
2013-10-22 19:11:00,34.0,29.0,29.93,NW,304,0.0,3.0,81,0.00,,,0.01,,2013-10-23 00:11:00,
2013-10-22 19:22:00,33.0,28.0,29.94,NW,324,1.0,3.0,80,0.00,,,0.01,,2013-10-23 00:22:00,
2013-10-22 19:42:00,33.0,27.0,29.94,SE,132,0.0,2.0,79,0.00,,,0.01,,2013-10-23 00:42:00,
2013-10-22 19:52:00,33.0,26.0,29.94,NW,324,0.0,3.0,76,0.00,,,0.01,,2013-10-23 00:52:00,
2013-10-22 20:11:00,33.0,27.0,29.94,NW,319,0.0,1.0,77,0.00,,,0.01,,2013-10-23 01:11:00,
2013-10-22 20:23:00,32.0,26.0,29.93,ESE,120,0.0,0.0,78,0.00,,,0.01,,2013-10-23 01:23:00,
2013-10-22 20:42:00,31.0,26.0,29.93,ESE,120,0.0,0.0,81,0.00,,,0.01,,2013-10-23 01:42:00,
2013-10-22 20:52:00,29.0,25.0,29.93,ESE,118,0.0,0.0,86,0.00,,,0.01,,2013-10-23 01:52:00,
2013-10-22 21:22:00,27.0,24.0,29.94,ESE,118,0.0,0.0,89,0.00,,,0.01,,2013-10-23 02:22:00,
2013-10-22 21:54:00,26.0,25.0,29.94,ESE,119,0.0,0.0,94,0.00,,,0.01,,2013-10-23 02:54:00,
2013-10-22 22:12:00,26.0,25.0,29.94,ESE,120,0.0,0.0,95,0.00,,,0.01,,2013-10-23 03:12:00,
2013-10-22 22:22:00,27.0,26.0,29.94,ESE,120,0.0,0.0,95,0.00,,,0.01,,2013-10-23 03:22:00,
2013-10-22 22:44:00,28.0,27.0,29.93,ESE,118,0.0,0.0,95,0.00,,,0.01,,2013-10-23 03:44:00,
2013-10-22 22:55:00,28.0,27.0,29.93,ESE,118,0.0,0.0,95,0.00,,,0.01,,2013-10-23 03:55:00,
2013-10-22 23:14:00,27.0,26.0,29.93,ESE,120,0.0,0.0,95,0.00,,,0.01,,2013-10-23 04:14:00,
2013-10-22 23:24:00,28.0,27.0,29.93,ESE,118,0.0,0.0,96,0.00,,,0.01,,2013-10-23 04:24:00,
2013-10-22 23:45:00,29.0,28.0,29.93,ESE,118,0.0,0.0,96,0.00,,,0.01,,2013-10-23 04:45:00,
2013-10-22 23:55:00,29.0,28.0,29.93,NNE,15,0.0,1.0,96,0.00,,,0.01,,2013-10-23 04:55:00,